Meteo pe oră la Abartzuza

Astăzi, 29 Iulie, Joi

Timp Temperatura Precipitaţii Vânt Presiune Umiditate
00:00 +13°C° 0 mm 2 m/s 711 mmHg 93%
01:00 +13°C° 0 mm 2 m/s 710 mmHg 93%
02:00 +13°C° 0 mm 1 m/s 710 mmHg 93%
03:00 +13°C° 0 mm 1 m/s 710 mmHg 92%
04:00 +13°C° 0 mm 1 m/s 710 mmHg 90%
05:00 +14°C° 0 mm 1 m/s 710 mmHg 88%
06:00 +14°C° 0 mm 1 m/s 710 mmHg 86%
07:00 +18°C° 0 mm 1 m/s 710 mmHg 77%
08:00 +21°C° 0 mm 1 m/s 710 mmHg 68%
09:00 +24°C° 0 mm 2 m/s 710 mmHg 60%
10:00 +26°C° 0 mm 2 m/s 710 mmHg 54%
11:00 +28°C° 0 mm 2 m/s 710 mmHg 48%
12:00 +30°C° 0 mm 3 m/s 710 mmHg 42%
13:00 +31°C° 0 mm 2 m/s 709 mmHg 40%
14:00 +32°C° 0 mm 2 m/s 709 mmHg 37%
15:00 +34°C° 0 mm 2 m/s 708 mmHg 35%
16:00 +31°C° 0.1 mm 3 m/s 708 mmHg 43%
17:00 +29°C° 0.1 mm 3 m/s 708 mmHg 52%
18:00 +27°C° 0.1 mm 3 m/s 707 mmHg 60%
19:00 +24°C° 0.1 mm 3 m/s 708 mmHg 71%
20:00 +20°C° 0.1 mm 3 m/s 708 mmHg 81%
21:00 +17°C° 0.1 mm 3 m/s 708 mmHg 92%
22:00 +17°C° 0.3 mm 3 m/s 708 mmHg 93%
23:00 +16°C° 0.3 mm 2 m/s 708 mmHg 93%

Mâine, 30 Iulie, Vineri

Timp Temperatura Precipitaţii Vânt Presiune Umiditate
00:00 +16°C° 0.3 mm 2 m/s 709 mmHg 94%
01:00 +16°C° 0 mm 2 m/s 708 mmHg 94%
02:00 +15°C° 0 mm 2 m/s 708 mmHg 94%
03:00 +15°C° 0 mm 2 m/s 708 mmHg 93%
04:00 +15°C° 0 mm 2 m/s 709 mmHg 92%
05:00 +15°C° 0 mm 2 m/s 709 mmHg 91%
06:00 +16°C° 0 mm 2 m/s 709 mmHg 89%
07:00 +17°C° 0 mm 2 m/s 709 mmHg 81%
08:00 +18°C° 0 mm 2 m/s 710 mmHg 73%
09:00 +20°C° 0 mm 3 m/s 710 mmHg 65%
10:00 +22°C° 0 mm 3 m/s 710 mmHg 56%
11:00 +25°C° 0 mm 4 m/s 710 mmHg 46%
12:00 +27°C° 0 mm 4 m/s 710 mmHg 37%
13:00 +27°C° 0 mm 5 m/s 710 mmHg 40%
14:00 +26°C° 0 mm 5 m/s 710 mmHg 43%
15:00 +26°C° 0 mm 6 m/s 709 mmHg 46%
16:00 +24°C° 0 mm 6 m/s 709 mmHg 52%
17:00 +22°C° 0 mm 6 m/s 709 mmHg 59%
18:00 +21°C° 0 mm 5 m/s 709 mmHg 65%
19:00 +19°C° 0 mm 4 m/s 710 mmHg 73%
20:00 +18°C° 0 mm 4 m/s 710 mmHg 81%
21:00 +16°C° 0 mm 3 m/s 710 mmHg 88%
22:00 +16°C° 0 mm 3 m/s 710 mmHg 88%
23:00 +16°C° 0 mm 3 m/s 710 mmHg 87%

Poimâine, 31 Iulie, Sâmbătă

Timp Temperatura Precipitaţii Vânt Presiune Umiditate
00:00 +16°C° 0 mm 3 m/s 709 mmHg 87%
01:00 +14°C° 0 mm 3 m/s 709 mmHg 87%
02:00 +14°C° 0 mm 3 m/s 709 mmHg 87%
03:00 +14°C° 0 mm 3 m/s 709 mmHg 88%
04:00 +14°C° 0 mm 3 m/s 709 mmHg 87%
05:00 +14°C° 0 mm 3 m/s 709 mmHg 87%
06:00 +14°C° 0 mm 3 m/s 709 mmHg 86%
07:00 +14°C° 0.1 mm 3 m/s 709 mmHg 83%
08:00 +14°C° 0.1 mm 3 m/s 709 mmHg 80%
09:00 +15°C° 0.1 mm 4 m/s 709 mmHg 77%
10:00 +17°C° 0.1 mm 4 m/s 710 mmHg 72%
11:00 +17°C° 0.1 mm 4 m/s 710 mmHg 67%
12:00 +17°C° 0.1 mm 5 m/s 710 mmHg 61%
13:00 +17°C° 0.1 mm 5 m/s 710 mmHg 62%
14:00 +18°C° 0.1 mm 4 m/s 710 mmHg 62%
15:00 +17°C° 0.1 mm 4 m/s 710 mmHg 63%
16:00 +17°C° 0.1 mm 4 m/s 710 mmHg 63%
17:00 +17°C° 0.1 mm 4 m/s 710 mmHg 63%
18:00 +16°C° 0.1 mm 5 m/s 710 mmHg 64%
19:00 +15°C° 0 mm 4 m/s 710 mmHg 72%
20:00 +13°C° 0 mm 3 m/s 710 mmHg 80%
21:00 +13°C° 0 mm 2 m/s 711 mmHg 89%
22:00 +13°C° 0 mm 2 m/s 711 mmHg 90%
23:00 +12°C° 0 mm 2 m/s 711 mmHg 91%

1 August, Duminică

Timp Temperatura Precipitaţii Vânt Presiune Umiditate
00:00 +12°C° 0 mm 2 m/s 711 mmHg 92%
01:00 +12°C° 0 mm 2 m/s 710 mmHg 92%
02:00 +10°C° 0 mm 2 m/s 710 mmHg 92%
03:00 +10°C° 0 mm 2 m/s 710 mmHg 93%
04:00 +11°C° 0 mm 1 m/s 710 mmHg 91%
05:00 +12°C° 0 mm 1 m/s 710 mmHg 90%
06:00 +12°C° 0 mm 1 m/s 710 mmHg 88%
07:00 +14°C° 0 mm 1 m/s 710 mmHg 77%
08:00 +16°C° 0 mm 2 m/s 711 mmHg 65%
09:00 +18°C° 0 mm 2 m/s 711 mmHg 53%
10:00 +19°C° 0 mm 2 m/s 711 mmHg 49%
11:00 +21°C° 0 mm 2 m/s 710 mmHg 44%
12:00 +24°C° 0 mm 3 m/s 710 mmHg 39%
13:00 +24°C° 0 mm 3 m/s 710 mmHg 39%
14:00 +24°C° 0 mm 3 m/s 710 mmHg 39%
15:00 +25°C° 0 mm 4 m/s 710 mmHg 40%
16:00 +23°C° 0 mm 4 m/s 710 mmHg 45%
17:00 +21°C° 0 mm 4 m/s 710 mmHg 50%
18:00 +20°C° 0 mm 4 m/s 710 mmHg 56%
19:00 +18°C° 0 mm 4 m/s 710 mmHg 66%
20:00 +16°C° 0 mm 3 m/s 710 mmHg 77%
21:00 +13°C° 0 mm 2 m/s 710 mmHg 87%
22:00 +13°C° 0 mm 2 m/s 710 mmHg 87%
23:00 +12°C° 0 mm 2 m/s 710 mmHg 86%

2 August, Luni

Timp Temperatura Precipitaţii Vânt Presiune Umiditate
00:00 +12°C° 0 mm 2 m/s 710 mmHg 86%
01:00 +12°C° 0 mm 2 m/s 710 mmHg 82%
02:00 +12°C° 0 mm 2 m/s 710 mmHg 77%
03:00 +13°C° 0 mm 2 m/s 709 mmHg 72%
04:00 +13°C° 0 mm 1 m/s 709 mmHg 71%
05:00 +13°C° 0 mm 1 m/s 709 mmHg 69%
06:00 +14°C° 0 mm 1 m/s 709 mmHg 68%
07:00 +15°C° 0 mm 1 m/s 710 mmHg 62%
08:00 +16°C° 0 mm 2 m/s 710 mmHg 57%
09:00 +18°C° 0 mm 2 m/s 710 mmHg 52%
10:00 +19°C° 0 mm 2 m/s 710 mmHg 51%
11:00 +19°C° 0 mm 2 m/s 710 mmHg 51%
12:00 +21°C° 0 mm 1 m/s 710 mmHg 50%
13:00 +21°C° 0 mm 2 m/s 710 mmHg 48%
14:00 +23°C° 0 mm 2 m/s 710 mmHg 46%
15:00 +25°C° 0 mm 3 m/s 710 mmHg 43%
16:00 +24°C° 0 mm 3 m/s 709 mmHg 48%
17:00 +22°C° 0 mm 4 m/s 709 mmHg 52%
18:00 +20°C° 0 mm 4 m/s 709 mmHg 57%
19:00 +18°C° 0 mm 3 m/s 710 mmHg 67%
20:00 +16°C° 0 mm 3 m/s 710 mmHg 78%
21:00 +14°C° 0 mm 2 m/s 710 mmHg 89%
22:00 +13°C° 0 mm 2 m/s 710 mmHg 89%
23:00 +13°C° 0 mm 2 m/s 710 mmHg 90%

3 August, Marţi

Timp Temperatura Precipitaţii Vânt Presiune Umiditate
00:00 +12°C° 0 mm 1 m/s 710 mmHg 90%
01:00 +12°C° 0 mm 1 m/s 710 mmHg 89%
02:00 +12°C° 0 mm 1 m/s 710 mmHg 88%
03:00 +12°C° 0 mm 1 m/s 710 mmHg 87%
04:00 +13°C° 0 mm 1 m/s 710 mmHg 85%
05:00 +13°C° 0 mm 1 m/s 710 mmHg 82%
06:00 +14°C° 0 mm 1 m/s 710 mmHg 79%
07:00 +15°C° 0 mm 1 m/s 710 mmHg 72%
08:00 +17°C° 0 mm 2 m/s 710 mmHg 64%
09:00 +19°C° 0 mm 2 m/s 711 mmHg 57%
10:00 +20°C° 0 mm 2 m/s 711 mmHg 56%
11:00 +20°C° 0 mm 3 m/s 711 mmHg 55%
12:00 +20°C° 0 mm 3 m/s 711 mmHg 53%
13:00 +22°C° 0 mm 4 m/s 711 mmHg 50%
14:00 +23°C° 0 mm 4 m/s 711 mmHg 47%
15:00 +25°C° 0 mm 4 m/s 711 mmHg 44%
16:00 +22°C° 0 mm 4 m/s 711 mmHg 49%
17:00 +21°C° 0 mm 5 m/s 711 mmHg 54%
18:00 +20°C° 0 mm 5 m/s 711 mmHg 59%
19:00 +18°C° 0 mm 4 m/s 711 mmHg 70%
20:00 +16°C° 0 mm 3 m/s 711 mmHg 80%
21:00 +14°C° 0 mm 2 m/s 712 mmHg 90%
22:00 +14°C° 0 mm 2 m/s 712 mmHg 91%
23:00 +13°C° 0 mm 2 m/s 712 mmHg 92%
Arată mai mult

Formular de consimțământ

Meteoprog și furnizorii noștri de servicii pot stoca și accesa date personale, precum cookies, identificatori de dispozitiv sau alte tehnologii similare pe dispozitivul dumneavoastră și procesa astfel de date pentru a personaliza conținutul și reclamele, dar și pentru a oferi caracteristici de social media și pentru a analiza traficul.

  • Stocarea și/sau accesarea informațiilor pe dispozitivul dumneavoastră

    Cookies, identificatori de dispozitiv sau alte informații pot fi stocate sau accesate pe dispozitiv în scopurile indicate mai sus.

  • Reclame și conținut personalizat, evaluarea reclamelor și a conținutului, informații despre audiențe și dezvoltarea produselor

    Reclamele și conținutul pot fi personalizate pe baza unui profil. Pot fi adăugate date suplimentare pentru a personaliza mai bine reclamele și conținutul. Performanța reclamelor și conținutului poate fi măsurată. Pot fi obținute informații despre utilizatorii care au văzut reclamele și conținutul. Aceste date pot fi utilizate pentru a dezvolta sau îmbunătăți experiența utilizatorilor, sistemele și software-ul.

Dând clic pe ‘Sunt de acord’, permiteți utilizarea cookie-urilor menționate, a identificatorilor de dispozitiv, balizelor web sau altor tehnologii similare. Setările pot fi modificate din browser-ul dispozitivului dumneavoastră.

În anumite scopuri, interesele legitime pot prima asupra consimțământului. Puteți citi mai multe informații în acest sens în Politica privind Confidențialitatea Datelor și Cookie.